Everett, WA

5:14 AM PST on November 13, 2019 (GMT -0800)
Snohomish County

Weather History for KPAE - August, 2019

Change the Weather History Date:

Monday, August 19, 2019

  Actual Average Record
Temperature  
Mean Temperature 64 °F -  
Max Temperature 71 °F 73 °F 89 °F (2016)
Min Temperature 57 °F 52 °F 40 °F (1973)
Growing Degree Days 14 (Base 50)    
Moisture  
Dew Point 54 °F    
Average Humidity 72    
Maximum Humidity 87    
Minimum Humidity 53    
Precipitation  
Precipitation 0.00 in - - ()
Sea Level Pressure  
Sea Level Pressure 30.00 in    
Wind  
Wind Speed 5 mph (NNW)    
Max Wind Speed 9 mph    
Max Gust Speed -    
Visibility 10 miles    
Events      
Averages and records for this station are not official NWS values.
T = Trace of Precipitation, MM = Missing Value Source: NWS Daily Summary

Daily Weather History Graph

Daily Weather History Graph

Search for Another Location

Airport or City:

Astronomy

Aug. 19, 2019 Rise Set
Actual Time 6:09 AM PDT 8:15 PM PDT
Civil Twilight 5:35 AM PDT 8:48 PM PDT
Nautical Twilight 4:54 AM PDT 9:30 PM PDT
Astronomical Twilight 4:07 AM PDT 10:16 PM PDT
Moon 10:21 PM PDT (8/19) 10:10 AM PDT (8/19)
Length of Visible Light 15h 12m
Length of Day
14h 05m
Waning Gibbous, 84% of the Moon is Illuminated
Aug 19
Waning Gibbous
Aug 23
Last Quarter
Aug 30
New
Sep 5
First Quarter
Sep 13
Full

Hourly Weather History & Observations

Time (PDT) Temp. Dew Point Humidity Pressure Visibility Wind Dir Wind Speed Gust Speed Precip Events Conditions
12:53 AM 59.0 °F 54.0 °F 83% 29.91 in 10.0 mi NNE 4.6 mph - N/A   Mostly Cloudy
1:53 AM 59.0 °F 54.0 °F 83% 29.92 in 10.0 mi NNE 5.8 mph - N/A   Mostly Cloudy
2:53 AM 59.0 °F 54.0 °F 83% 29.93 in 10.0 mi Variable 4.6 mph - N/A   Overcast
3:53 AM 59.0 °F 54.0 °F 83% 29.95 in 10.0 mi North 3.5 mph - N/A   Overcast
4:53 AM 59.0 °F 54.0 °F 83% 29.96 in 10.0 mi NNE 4.6 mph - N/A   Overcast
5:15 AM 59.0 °F 55.0 °F 87% 29.97 in 10.0 mi NE 4.6 mph - N/A   Overcast
5:38 AM 59.0 °F 55.0 °F 87% 29.97 in 10.0 mi NE 3.5 mph - N/A   Overcast
5:53 AM 60.1 °F 55.0 °F 83% 29.97 in 10.0 mi NNE 4.6 mph - N/A   Overcast
6:53 AM 60.1 °F 55.0 °F 83% 29.99 in 10.0 mi North 4.6 mph - N/A   Overcast
7:53 AM 60.1 °F 54.0 °F 80% 30.01 in 10.0 mi East 3.5 mph - N/A   Overcast
8:49 AM 62.6 °F 53.6 °F 72% 30.01 in 10.0 mi Variable 3.5 mph - N/A   Overcast
8:53 AM 62.1 °F 54.0 °F 75% 30.01 in 10.0 mi Calm Calm - N/A   Overcast
9:24 AM 63.0 °F 54.0 °F 72% 30.02 in 10.0 mi SSE 3.5 mph - N/A   Overcast
9:32 AM 62.1 °F 55.0 °F 78% 30.02 in 10.0 mi West 4.6 mph - N/A   Overcast
9:53 AM 62.1 °F 55.0 °F 78% 30.03 in 10.0 mi West 4.6 mph - N/A   Overcast
10:10 AM 62.1 °F 55.0 °F 78% 30.03 in 10.0 mi West 4.6 mph - N/A   Overcast
10:53 AM 63.0 °F 55.0 °F 75% 30.04 in 10.0 mi Variable 3.5 mph - N/A   Overcast
11:00 AM 64.0 °F 55.0 °F 73% 30.04 in 10.0 mi Variable 3.5 mph - N/A   Overcast
11:40 AM 64.0 °F 54.0 °F 70% 30.04 in 10.0 mi NW 4.6 mph - N/A   Overcast
11:53 AM 64.9 °F 54.0 °F 68% 30.04 in 10.0 mi North 4.6 mph - N/A   Overcast
12:02 PM 64.9 °F 53.1 °F 65% 30.04 in 10.0 mi NNW 4.6 mph - N/A   Overcast
12:09 PM 64.9 °F 53.1 °F 65% 30.03 in 10.0 mi Variable 3.5 mph - N/A   Overcast
12:53 PM 66.9 °F 54.0 °F 63% 30.03 in 10.0 mi WNW 5.8 mph - N/A   Overcast
1:07 PM 69.1 °F 54.0 °F 58% 30.03 in 10.0 mi West 9.2 mph - N/A   Mostly Cloudy
1:53 PM 69.1 °F 54.0 °F 58% 30.04 in 10.0 mi West 8.1 mph - N/A   Mostly Cloudy
2:00 PM 69.1 °F 54.0 °F 58% 30.04 in 10.0 mi WNW 8.1 mph - N/A   Partly Cloudy
2:53 PM 69.1 °F 54.0 °F 58% 30.04 in 10.0 mi NW 8.1 mph - N/A   Scattered Clouds
3:53 PM 70.0 °F 52.0 °F 53% 30.02 in 10.0 mi WNW 4.6 mph - N/A   Scattered Clouds
4:53 PM 70.0 °F 53.1 °F 55% 30.02 in 10.0 mi West 8.1 mph - N/A   Clear
5:53 PM 69.1 °F 53.1 °F 57% 30.01 in 10.0 mi West 5.8 mph - N/A   Clear
6:53 PM 68.0 °F 52.0 °F 56% 29.99 in 10.0 mi North 6.9 mph - N/A   Clear
7:53 PM 64.9 °F 52.0 °F 63% 30.00 in 10.0 mi North 4.6 mph - N/A   Clear
8:53 PM 63.0 °F 51.1 °F 65% 30.00 in 10.0 mi NNW 4.6 mph - N/A   Clear
9:53 PM 61.0 °F 51.1 °F 70% 30.00 in 10.0 mi North 4.6 mph - N/A   Clear
10:53 PM 59.0 °F 52.0 °F 78% 29.99 in 10.0 mi NNW 3.5 mph - N/A   Clear
11:53 PM 57.9 °F 52.0 °F 81% 29.98 in 10.0 mi Calm Calm - N/A   Clear